Home   Weather   Maputo   Past weeks

Flag for Mozambique Past Weather in Maputo, Mozambique — Yesterday and Last 2 Weeks

Now
72 °F

Partly sunny.


Feels Like: 69 °F
Forecast: 71 / 97 °F
Wind: 2 mph from West

Location: Maputo / Mavalane

Current Time: Dec 3, 2016 at 6:48:20 am

Latest Report: Dec 3, 2016 at 6:00 am


Visibility: N/A

Pressure: 30.09 "Hg

Humidity: 88%

Dew Point: 68 °F

Location of MaputoLocation

Past Weather in Maputo — Graph

°F

Maputo Temperature Yesterday

Maximum temperature yesterday: 81 °F (at 11:00 am)
Minimum temperature yesterday: 68 °F (at 4:00 am)
Average temperature yesterday: 76 °F

High & Low Weather Summary for the Past Weeks

 TemperatureHumidityPressure
High93 °F (Nov 24, 1:00 pm)100% (Nov 21, 5:00 am)32.46 "Hg (Nov 21, 5:00 am)
Low66 °F (Nov 19, 11:00 pm)38% (Nov 21, 1:00 pm)29.74 "Hg (Dec 1, 5:00 pm)
Average77 °F74%29.99 "Hg
* Reported Nov 18 5:00 am — Dec 3 5:00 am, Maputo, Weather by CustomWeather, © 2016

Note: Actual official high and low records may vary slightly from our data, if they occured in-between our weather recording intervals... More about our weather records

Advertising

Maputo Weather History for the Previous 24 Hours

Scroll right to see more
 ConditionsComfort  
Time TempWeatherWind HumidityBarometerVisibility
5:00 am
Sat, Dec 3
72 °FPartly sunny.5 mph88%30.09 "HgN/A
4:00 am72 °FPassing clouds.5 mph83%30.07 "HgN/A
3:00 am72 °FPassing clouds.5 mph83%30.07 "HgN/A
2:00 am72 °FPassing clouds.2 mph83%30.04 "HgN/A
1:00 am73 °FPassing clouds.3 mph74%30.07 "HgN/A
12:00 am73 °FPassing clouds.5 mph74%30.07 "HgN/A
11:00 pm
Fri, Dec 2
75 °FPassing clouds.5 mph65%30.07 "HgN/A
10:00 pm75 °FPassing clouds.10 mph65%30.07 "HgN/A
9:00 pm75 °FPassing clouds.8 mph69%30.04 "HgN/A
8:00 pm75 °FPassing clouds.10 mph74%30.04 "HgN/A
7:00 pm77 °FPassing clouds.9 mph69%30.01 "HgN/A
6:00 pm77 °FPartly sunny.10 mph69%30.01 "HgN/A
5:00 pm77 °FPartly sunny.12 mph69%30.01 "HgN/A
4:00 pm79 °FPartly sunny.13 mph65%29.98 "HgN/A
3:00 pm81 °FScattered clouds.9 mph58%30.01 "HgN/A
2:00 pm79 °FPartly sunny.8 mph65%30.01 "HgN/A
1:00 pm79 °FScattered clouds.10 mph61%30.01 "HgN/A
12:10 pm81 °FScattered clouds.9 mph58%30.04 "HgN/A
11:00 am81 °FPartly sunny.6 mph58%30.04 "HgN/A
10:00 am79 °FPartly sunny.10 mph61%30.04 "HgN/A
9:00 am77 °FScattered clouds.13 mph65%30.04 "HgN/A
8:00 am73 °FPartly sunny.15 mph69%30.04 "HgN/A
7:00 am70 °FPartly sunny.15 mph78%30.04 "HgN/A
6:00 am70 °FScattered clouds.14 mph78%30.04 "HgN/A
Weather by CustomWeather, © 2016

See weather overviewHow to use our weather pages